M0TJX-1 Weather Reports


time (UTC)temp
F
wind
direction
speed
knots
gust
knots
rain 1hr
in
rain 24hr
in
rain mn
in
humidity
%
barometer
mb
20260502184320 55 230 0.0 0.9 0.12 0.48 0.48 95 1011.2
20260502182820 55 21 0.0 0.9 0.08 0.44 0.44 95 1011.3
20260502181320 55 21 0.0 0.9 0.04 0.40 0.40 94 1011.2
20260502164320 57 9 0.9 3.5 0.20 0.33 0.33 91 1012.2
20260502162820 57 148 0.0 0.0 0.21 0.29 0.29 89 1012.4
20260502161320 57 148 0.0 0.9 0.24 0.25 0.25 88 1012.7
20260502151320 63 136 0.9 1.7 0.01 0.01 0.01 72 1013.2
20260502122820 65 130 1.7 2.6 0.00 0.00 0.00 60 1015.0
20260502121320 66 127 0.9 1.7 0.00 0.00 0.00 61 1015.5
20260502115820 66 35 0.9 1.7 0.00 0.00 0.00 61 1015.4
20260502114320 66 121 0.9 3.5 0.00 0.00 0.00 59 1015.6
20260502112820 65 216 0.9 2.6 0.00 0.00 0.00 61 1016.0
20260502111320 64 123 0.9 3.5 0.00 0.00 0.00 63 1016.2
20260502105820 64 122 0.9 4.3 0.00 0.00 0.00 65 1016.3
20260502104320 63 254 0.9 2.6 0.00 0.00 0.00 66 1016.5
20260502102820 63 128 1.7 4.3 0.00 0.00 0.00 64 1016.7
20260502101320 64 150 0.9 2.6 0.00 0.00 0.00 64 1016.7
20260502091320 59 22 1.7 3.5 0.00 0.00 0.00 76 1017.3
20260502071320 51 207 0.0 0.9 0.00 0.00 0.00 95 1017.9
20260502065820 50 207 0.0 0.9 0.00 0.00 0.00 95 1017.8
20260502064320 49 207 0.0 0.0 0.00 0.00 0.00 95 1017.9
20260502062820 49 207 0.0 0.9 0.00 0.00 0.00 95 1017.8
20260502061320 48 207 0.0 0.9 0.00 0.00 0.00 95 1017.9
20260502055820 48 207 0.0 1.7 0.00 0.00 0.00 95 1018.0
20260502054320 47 207 0.0 0.0 0.00 0.00 0.00 95 1017.9
20260502052820 47 207 0.0 0.0 0.00 0.00 0.00 95 1017.8
20260502051320 46 207 0.0 0.0 0.00 0.00 0.00 94 1017.7
20260502045820 46 207 0.0 0.0 0.00 0.00 0.00 94 1017.8
20260502044320 46 207 0.0 0.0 0.00 0.00 0.00 94 1017.8
20260502042821 46 207 0.0 0.0 0.00 0.00 0.00 93 1017.8
20260502041321 46 207 0.0 0.0 0.00 0.00 0.00 93 1017.8
20260502035821 46 207 0.0 0.0 0.00 0.00 0.00 93 1018.3
20260502034321 46 207 0.0 0.0 0.00 0.00 0.00 93 1018.4
20260502032821 46 207 0.0 0.0 0.00 0.00 0.00 92 1018.3
20260502031321 46 207 0.0 0.0 0.00 0.00 0.00 92 1018.3
20260502025821 46 207 0.0 0.0 0.00 0.00 0.00 92 1018.3
20260502024321 46 207 0.0 0.0 0.00 0.00 0.00 91 1018.5
20260502022821 46 207 0.0 0.0 0.00 0.00 0.00 91 1018.5
20260502021321 46 207 0.0 0.0 0.00 0.00 0.00 91 1018.7
20260502015821 47 207 0.0 0.0 0.00 0.00 0.00 91 1018.7
20260502014321 47 207 0.0 0.0 0.00 0.00 0.00 91 1018.9
20260502012821 47 207 0.0 0.0 0.00 0.00 0.00 91 1019.0
20260502011321 48 207 0.0 0.0 0.00 0.00 0.00 90 1019.0
20260502005821 48 207 0.0 0.0 0.00 0.00 0.00 90 1019.1
20260502004321 48 207 0.0 0.0 0.00 0.00 0.00 90 1019.2
20260502002821 48 207 0.0 0.0 0.00 0.00 0.00 89 1019.4
20260502001321 49 207 0.0 0.0 0.00 0.00 0.00 89 1019.4
20260501235821 49 207 0.0 0.0 0.00 0.00 0.00 88 1019.6
20260501234321 49 207 0.0 0.0 0.00 0.00 0.00 88 1019.8
20260501232821 50 207 0.0 0.0 0.00 0.00 0.00 88 1019.9
20260501231321 50 207 0.0 0.0 0.00 0.00 0.00 87 1020.0
20260501225821 50 207 0.0 0.0 0.00 0.00 0.00 87 1020.1
20260501224321 51 207 0.0 0.0 0.00 0.00 0.00 86 1020.0
20260501222821 51 207 0.0 0.0 0.00 0.00 0.00 86 1019.8
20260501221321 51 207 0.0 0.0 0.00 0.00 0.00 85 1019.8
20260501215821 51 207 0.0 0.0 0.00 0.00 0.00 84 1019.7
20260501214321 52 207 0.0 0.0 0.00 0.00 0.00 84 1019.7
20260501212821 52 207 0.0 0.0 0.00 0.00 0.00 83 1019.7
20260501211321 53 207 0.0 0.0 0.00 0.00 0.00 82 1019.7
20260501205821 53 207 0.0 0.0 0.00 0.00 0.00 81 1019.8
20260501204321 54 207 0.0 0.0 0.00 0.00 0.00 80 1019.8
20260501202821 55 207 0.0 0.0 0.00 0.00 0.00 79 1019.8
20260501201321 55 207 0.0 0.9 0.00 0.00 0.00 79 1019.5
20260501195821 56 213 0.0 0.0 0.00 0.00 0.00 78 1019.6
20260501194321 56 213 0.0 0.9 0.00 0.00 0.00 77 1019.6
20260501192821 57 241 0.0 1.7 0.00 0.00 0.00 77 1019.5
20260501191321 58 225 0.0 1.7 0.00 0.00 0.00 77 1019.6
20260501185821 58 235 0.0 0.9 0.00 0.00 0.00 76 1019.5